Weather History for Texarkana, AR

Change the Weather History Date:

Tuesday, February 11, 2014

  Actual Average Record
Temperature  
Mean Temperature 31 °F 47 °F  
Max Temperature 33 °F 58 °F 84 °F (1922)
Min Temperature 28 °F 37 °F 13 °F (1981)
Degree Days  
Heating Degree Days 34 18  
Month to date heating degree days 323 207  
Since 1 July heating degree days 2223 1929  
Cooling Degree Days 0 0  
Month to date cooling degree days 0 0  
Year to date cooling degree days 0 1  
Moisture  
Dew Point 15 °F    
Average Humidity 50    
Maximum Humidity 63    
Minimum Humidity 36    
Precipitation  
Precipitation 0.03 in 0.14 in 3.13 in (1965)
Month to date precipitation 2.92 1.42  
Year to date precipitation 3.65 4.82  
Sea Level Pressure  
Sea Level Pressure 30.28 in    
Wind  
Wind Speed 8 mph (NE)    
Max Wind Speed 17 mph    
Max Gust Speed 22 mph    
Visibility 10 miles    
Events Rain    
T = Trace of Precipitation, MM = Missing Value Source: NWS Daily Summary

Daily Weather History Graph

Daily Weather History Graph

Search for Another Location

Airport:

Trip Planner

Search our weather history database for the weather conditions in past years. The results will help you decide how hot, cold, wet, or windy it might be!

Date:

Astronomy

Feb. 11, 2014 Rise Set
Actual Time 7:03 AM CST 5:57 PM CST
Civil Twilight 6:38 AM CST 6:22 PM CST
Nautical Twilight 6:08 AM CST 6:51 PM CST
Astronomical Twilight 5:39 AM CST 7:20 PM CST
Moon 3:21 PM CST (2/11) 4:37 AM CST (2/11)
Length of Visible Light 11h 44m
Length of Day
10h 53m
Waxing Gibbous, 91% of the Moon is Illuminated
Feb 11
Waxing Gibbous
Feb 14
Full
Feb 22
Last Quarter
Mar 1
New
Mar 8
First Quarter

Hourly Weather History & Observations

Time (CST) Temp. Windchill Dew Point Humidity Pressure Visibility Wind Dir Wind Speed Gust Speed Precip Events Conditions
12:53 AM 32.0 °F 23.6 °F 21.9 °F 66% 30.28 in 10.0 mi NE 10.4 mph - N/A   Overcast
1:53 AM 30.9 °F 22.8 °F 19.9 °F 64% 30.29 in 10.0 mi NE 9.2 mph 17.3 mph N/A   Overcast
2:53 AM 30.9 °F 24.3 °F 18.0 °F 59% 30.29 in 10.0 mi NE 6.9 mph - N/A   Overcast
3:53 AM 30.0 °F 20.5 °F 14.0 °F 51% 30.28 in 10.0 mi NE 11.5 mph 17.3 mph N/A   Overcast
4:53 AM 30.0 °F 20.5 °F 14.0 °F 51% 30.28 in 10.0 mi ENE 11.5 mph - N/A   Overcast
5:53 AM 30.0 °F 21.1 °F 15.1 °F 54% 30.30 in 10.0 mi NE 10.4 mph - N/A   Overcast
6:53 AM 30.0 °F 22.4 °F 12.9 °F 49% 30.33 in 10.0 mi NE 8.1 mph - N/A   Overcast
7:53 AM 30.0 °F 19.5 °F 12.9 °F 49% 30.33 in 10.0 mi NE 13.8 mph 19.6 mph N/A   Overcast
8:53 AM 30.0 °F 21.1 °F 14.0 °F 51% 30.35 in 10.0 mi NNE 10.4 mph - N/A   Overcast
9:53 AM 30.0 °F 22.4 °F 12.0 °F 47% 30.36 in 10.0 mi NE 8.1 mph - N/A   Overcast
10:53 AM 30.9 °F 22.8 °F 10.0 °F 42% 30.37 in 10.0 mi ENE 9.2 mph - N/A   Overcast
11:53 AM 32.0 °F 23.0 °F 12.9 °F 45% 30.33 in 10.0 mi NE 11.5 mph - N/A   Overcast
12:53 PM 32.0 °F 22.5 °F 12.0 °F 44% 30.29 in 10.0 mi NE 12.7 mph 18.4 mph N/A   Scattered Clouds
1:53 PM 32.0 °F 23.6 °F 9.0 °F 38% 30.25 in 10.0 mi NE 10.4 mph - 0.00 in   Overcast
2:53 PM 32.0 °F 21.6 °F 10.0 °F 40% 30.21 in 10.0 mi NE 15.0 mph 21.9 mph 0.00 in   Overcast
3:53 PM 30.0 °F 23.2 °F 14.0 °F 51% 30.22 in 8.0 mi ENE 6.9 mph - 0.00 in   Overcast
4:53 PM 28.9 °F - 17.1 °F 61% 30.28 in 10.0 mi Calm Calm - 0.03 in   Overcast
5:53 PM 28.0 °F 22.8 °F 18.0 °F 66% 30.27 in 10.0 mi East 4.6 mph - 0.00 in Rain Light Freezing Rain
6:25 PM 28.4 °F 22.2 °F 19.4 °F 69% 30.26 in 10.0 mi ENE 5.8 mph - 0.00 in   Overcast
6:53 PM 28.9 °F 23.9 °F 19.0 °F 67% 30.26 in 10.0 mi NE 4.6 mph - 0.00 in   Overcast
7:53 PM 30.0 °F 26.5 °F 17.1 °F 59% 30.26 in 10.0 mi ENE 3.5 mph - 0.00 in   Overcast
8:53 PM 30.9 °F 27.5 °F 17.1 °F 57% 30.27 in 10.0 mi NNE 3.5 mph - N/A   Overcast
9:53 PM 30.9 °F 27.5 °F 18.0 °F 59% 30.27 in 10.0 mi North 3.5 mph - N/A   Overcast
10:53 PM 30.9 °F 26.2 °F 18.0 °F 59% 30.25 in 10.0 mi NNE 4.6 mph - N/A   Overcast
11:53 PM 32.0 °F 24.2 °F 14.0 °F 48% 30.22 in 10.0 mi NE 9.2 mph - N/A   Overcast